Notices

What's New in latest Release from April 7th, 2021:

- Updated Glossary, including Speed of Maximum Gust, and Total Hourly Precipitation

- Updated national and regional climate services offices contacts and prices information

- Addition of station inventory lists for 1981-2010, 1971-2000, and 1961-1990 Normals.

Please note that as of June 10, 2021 UTC dates are available for all years 2004-present, and DBA is working on populating the remaining years (2003 to 1953).

If you haven't already, please take our survey and provide feedback about our website: https://eccc.sondage-survey.ca/f/LanguageSelection.aspx?s=442ca660-fcf1-47c0-95a9-59707d6fd709

Hourly Data Report for February 25, 2017

TORONTO CITY
ONTARIO

43°40'00.000" N
79°24'00.000" W
112.50 m
6158355
71508
XTO

Download Data

Hourly Data (February 2017)
Hourly Data Report for February 25, 2017
TIME
LST
Temp Definition
°C
Dew Point Definition
°C
Rel Hum Definition
%
Precip. Amount Definition
mm

Wind Dir Definition
10's deg

Wind Spd Definition
km/h
Visibility Definition
km
Stn Press Definition
kPa
Hmdx Definition


Wind Chill Definition


Weather Definition


00:00 3.3 2.8 97 0.2 LegendMM LegendMM   98.82     LegendNANA
01:00 3.4 2.9 96 0.0 LegendMM LegendMM   98.57     LegendNANA
02:00 3.0 2.5 97 0.0 LegendMM LegendMM   98.67     LegendNANA
03:00 3.9 3.4 97 3.5 LegendMM LegendMM   98.59     LegendNANA
04:00 4.0 3.4 96 3.1 LegendMM LegendMM   98.48     LegendNANA
05:00 4.3 3.6 96 0.2 LegendMM LegendMM   98.41     LegendNANA
06:00 4.6 4.0 96 0.3 LegendMM LegendMM   98.34     LegendNANA
07:00 5.5 5.0 96 0.0 LegendMM LegendMM   98.26     LegendNANA
08:00 6.2 5.6 96 0.0 LegendMM LegendMM   98.28     LegendNANA
09:00 7.6 7.0 96 0.2 LegendMM LegendMM   98.28     LegendNANA
10:00 6.8 4.6 86 0.0 LegendMM LegendMM   98.42     LegendNANA
11:00 7.7 2.0 67 0.0 LegendMM LegendMM   98.44     LegendNANA
12:00 7.7 0.4 60 0.0 LegendMM LegendMM   98.48     LegendNANA
13:00 8.3 0.6 58 0.0 LegendMM LegendMM   98.41     LegendNANA
14:00 8.1 -0.3 56 0.0 LegendMM LegendMM   98.47     LegendNANA
15:00 5.3 -1.2 63 0.0 LegendMM LegendMM   98.62     LegendNANA
16:00 4.7 -2.9 58 0.0 LegendMM LegendMM   98.66     LegendNANA
17:00 3.5 -5.7 51 0.0 LegendMM LegendMM   98.77     LegendNANA
18:00 2.3 -6.4 53 0.0 LegendMM LegendMM   98.89     LegendNANA
19:00 1.8 -6.0 56 0.0 LegendMM LegendMM   99.01     LegendNANA
20:00 1.0 -6.0 60 0.0 LegendMM LegendMM   99.19     LegendNANA
21:00 0.3 -5.3 66 0.0 LegendMM LegendMM   99.38     LegendNANA
22:00 -0.4 -6.1 65 0.2 LegendMM LegendMM   99.46     LegendNANA
23:00 -0.7 -6.6 64 0.0 LegendMM LegendMM   99.53     LegendNANA

Notes on Data Quality.

Legend

  • E = Estimated
  • M = Missing
  • NA = Not Available*
  • [empty] = Indicates an unobserved value
Date modified: